User: anonymous   Login
Location: Chillicothe
(39.7950°N, 93.5520°W)
Time: 12:41:45
(UTC-05:00)
Language:

Transit 2A Rocket - Orbit

View from above orbital plane
View from above orbital plane
View from above satellite
View from above satellite

Ground track
Ground track

The orbit data is extracted from the following two-line orbital elements,

1    47U 60007C   19295.84473687 -.00000036 +00000-0 +16994-4 0  9990
2    47 066.6659 072.9840 0221365 118.8259 243.5266 14.42054441100271
Epoch (UTC): 22 October 2019 20:16:25
Eccentricity: 0.0221365
inclination: 66.6659°
perigee height: 594 km
apogee height: 909 km
right ascension of ascending node: 72.9840°
argument of perigee: 118.8259°
revolutions per day: 14.42054441
mean anomaly at epoch: 243.5266°
orbit number at epoch: 10027

The dashed part of the orbit path shows where the satellite is in the earth's shadow,  

DLR